Location: Walnut Point State Park
(39.6958°N, 88.0345°W)
Time: 10:14:32
(UTC-05:00)

Cosmos 1833 Rocket - Visible Passes

Search period start: 26 May 2018 00:00
Search period end: 05 June 2018 00:00
Orbit: 833 x 839 km, 71.0° (Epoch: 25 May)

Date Brightness Start Highest point End Pass type
(mag) Time Alt. Az. Time Alt. Az. Time Alt. Az.
26 May 5.6 03:46:04 10° N 03:49:56 19° NE 03:53:47 10° E visible
27 May 5.6 03:29:32 10° N 03:33:10 17° NE 03:36:48 10° E visible
28 May 5.6 03:13:00 10° NNE 03:16:24 16° NE 03:19:46 10° E visible
28 May 2.7 04:55:23 10° NNW 05:01:00 80° WSW 05:06:36 10° SSE visible
29 May 5.6 02:56:31 10° NNE 02:59:37 15° NE 03:02:43 10° E visible
29 May 2.7 04:38:40 10° NNW 04:44:19 87° WSW 04:49:55 10° SSE visible
30 May 5.6 02:40:02 10° NNE 02:42:50 14° NE 02:45:38 10° ENE visible
30 May 2.7 04:21:58 10° NNW 04:27:37 86° ENE 04:33:13 10° SSE visible
31 May 5.6 02:23:37 10° NNE 02:26:03 13° NE 02:28:29 10° ENE visible
31 May 2.8 04:05:16 10° NNW 04:10:55 80° ENE 04:16:31 10° SSE visible
01 Jun 5.6 02:07:17 10° NNE 02:09:16 12° NE 02:11:14 10° ENE visible
01 Jun 2.9 03:48:35 10° NNW 03:54:13 73° ENE 03:59:48 10° SSE visible
02 Jun 5.7 01:51:06 10° NNE 01:52:28 11° NE 01:53:51 10° ENE visible
02 Jun 3.0 03:31:54 10° NNW 03:37:30 67° ENE 03:43:04 10° SSE visible
03 Jun 3.1 03:15:13 10° NNW 03:20:48 62° ENE 03:26:20 10° SE visible
04 Jun 3.3 02:58:33 10° NNW 03:04:05 57° ENE 03:09:35 10° SE visible
04 Jun 4.0 04:43:43 10° WNW 04:47:29 19° W 04:51:14 10° SW visible
